Regional Weather Roundup
Issued by NWS State College, PA

Home | Current Version | Previous Version | Text Only | Print | Product List | Glossary On
Versions: 1 2 3 4 5 6 7 8 9 10 11 12 13 14 15 16 17 18 19 20 21 22 23 24 25 26 27 28 29 30 31 32 33 34 35 36 37 38 39 40 41 42 43 44 45 46 47 48 49 50
783
ASUS41 KCTP 061010
RWRCTP

REGIONAL WEATHER ROUNDUP
NATIONAL WEATHER SERVICE STATE COLLEGE PA
500 AM EST SAT FEB 06 2016

Note: "fair" indicates few or no clouds below 12,000 feet with no
significant weather and/or obstructions to visibility.

* = STATION THAT DOES NOT REPORT PRECIPITATION /E.G. RAIN...SNOW...ETC/
    THUNDER OR FOG.

PAZ002>004-007>009-013>016-020>023-029>032-061100-
WESTERN PENNSYLVANIA

CITY           SKY/WX    TMP DP  RH WIND       PRES   REMARKS
ERIE           CLOUDY    33  19  56 SW15      30.24S
MEADVILLE      CLOUDY    31  17  56 S10       30.23R
FRANKLIN*      CLOUDY    27  18  69 SW7       30.26S
NEW CASTLE     CLOUDY    31  20  63 VRB6      30.28S
BEAVER COUNTY  NOT AVBL
BUTLER*        CLOUDY    28  18  64 S6        30.31F
PITTSBURGH INT CLOUDY    30  15  53 S7        30.29R
PITTSBURGH     MOCLDY    28  17  63 S10       30.29S
INDIANA*       CLOUDY    25  19  80 CALM      30.32S
LATROBE        PTCLDY    23  18  80 CALM      30.32S
WASHINGTON CO* CLOUDY    25  16  68 CALM      30.31R
$$

PAZ004>006-010>012-017>019-024>028-033>037-041-042-045-046-049>053-061100-
CENTRAL PENNSYLVANIA

CITY           SKY/WX    TMP DP  RH WIND       PRES   REMARKS
BRADFORD       CLOUDY    24  15  68 S6        30.21F
DUBOIS         CLOUDY    27  15  61 SW8       30.24S
CLEARFIELD     CLOUDY    19  16  88 CALM      30.29S
JOHNSTOWN      CLOUDY    23  12  62 S7        30.25S WCI  15
ALTOONA        CLOUDY    24  15  68 CALM      30.31S
STATE COLLEGE  CLOUDY    22  16  77 SW3       30.31S
WILLIAMSPORT   CLEAR     22  16  78 CALM      30.36R
SELINSGROVE    CLOUDY    21  17  84 CALM      30.38R
FT INDIANTOWN  CLOUDY    23  18  81 NW2       30.37R
CAPITAL CITY   CLOUDY    27  16  63 CALM      30.38R
HARRISBURG     CLOUDY    23  17  78 CALM      30.38R
YORK           CLOUDY    19  16  88 CALM      30.38R
$$

PAZ038>040-043-044-047-048-054-055-060>062-067>071-061100-
EASTERN PENNSYLVANIA

CITY           SKY/WX    TMP DP  RH WIND       PRES   REMARKS
SCRANTON       CLEAR     22  16  78 CALM      30.32R
MOUNT POCONO   CLEAR     20  14  77 W5        30.26R WCI  13
ALLENTOWN      CLOUDY    23  16  74 CALM      30.37R
QUAKERTOWN*    CLOUDY    19  18  93 CALM      30.38R
READING        CLOUDY    25  17  72 CALM      30.38R
LANCASTER      CLOUDY    22  17  81 CALM      30.39R
COATESVILLE    CLOUDY    28  19  69 CALM      30.39R
POTTSTOWN      PTCLDY    22  19  89 CALM      30.41R
BLUE BELL        N/A     23  21  93 CALM      30.38S
DOYLESTOWN     PTCLDY    22  18  85 CALM      30.37R
WILLOW GROVE   NOT AVBL
NORTH PHILA    CLOUDY    26  21  81 CALM      30.41R
PHILADELPHIA   CLOUDY    27  19  72 SW5       30.42R
$$




USA.gov is the U.S. government's official web portal to all federal, state and local government web resources and services.